7 * 24
多渠道服务支持
STARLINK-11484 是 SpaceX Starlink 项目中的一颗低轨卫星,属于其宽带互联网星座的一部分。该卫星旨在为全球用户提供高速、低延迟的互联网服务,尤其关注网络覆盖不足的地区。它运行在约 550 公里的轨道高度,采用可再生太阳能供电,并具备星间通信能力,以提升网络效率。作为 Starlink 计划的组成部分,STARLINK-11484 有助于构建一个全球性的卫星互联网系统,推动远程通信和数字接入的发展。
美国
(US)
| 数据来源 | 国际轨道数据 |
| 星历时间: | 2025-11-01T08:00:03+0800 2天前 查看轨道信息 |
| 半长轴: | 6734.504km |
| 偏心率: | 0.0001786 |
| 轨道倾角: | 43.000° |
| 近地点辐角 | 276.296° |
| 升交点赤经 | 112.429° |
| 平近点角 | 3.002° |
| 近地点: | 355.166km |
| 远地点: | 357.572km |
| 周期: | 91.668分钟 |
| 每日圈数: | 15.70885 |